Etusivu
METAR-TAF:

METAR-TAF

Lentoasemat :

Edwards County Airport

Rocksprings, Texas, Yhdysvallat

Leveyspiiri: 29-56-48N, Pituuspiiri: 100-10-25W, korkeus merenpinnasta: 723 m

Tämänhetkinen sää

Tämä raportti tehtiin 16 minuuttia sitten, kello 22.35 UTC
Tuuli 12 kn etelästä/kaakosta
Lämpötila 29°C
Kosteus 52%
Ilmanpaine 1019 hPa
selkeää

METAR: KECU 022235Z AUTO 16012KT CLR 29/18 A3008 RMK AO2

Aika: 17:51 (22:51 UTC)


TAF: puuttuu

Säähavainnot ja -ennusteet yli 4000 lentoasemalta (METAR- ja TAF-raportit).

Käytössä olevat sääasemat on merkitty karttaan keltaisilla ja punaisilla pisteillä.

Aseta hiiri pisteen päälle nähdäksesi sääaseman nimen.

Klikkaa sitten nähdäksesi säähavainnot ja -ennusteet.

Kartan vaihtaminen: klikkaa mustalla rastilla varustettuja vihreitä pisteitä, niin voit zoomata sisään; viivalla varustettua vihreää pistettä, niin voit zoomata ulos tai vihreitä nuolia, niin pääset viereisille kartoille.


METAR-TAF: